OAL951 EFHK-LGTS

Flight info

Callsign OAL951
Flight time N/A
Altitude 35000
Route KOIVU DCT DOLAT DCT IRBEX DCT BEGDA/K0820F350 DCT TADUN DCT TOVNI DCT TUREC/N0428F350 DCT ALOXU DCT TIMUR DCT NIKTI/N0430F360 DCT ODIKO
Aircraft B738/M-SDE2E3FGHIRWXY/LB1

Departure

Time 2026-04-26 07:51
Airport Helsinki Vantaa Airport (EFHK)

Arrival

Time N/A
Airport Thessaloniki Macedonia International Airport (LGTS)
Time Latitude Longitude Altitude Speed Heading
2026-04-26 07:28 60.31705 24.96114 165 ft 0 kts 130°
2026-04-26 07:38 60.31710 24.96101 166 ft 2 kts 130°
2026-04-26 07:39 60.31719 24.96081 166 ft 2 kts 129°
2026-04-26 07:39 60.31727 24.96059 166 ft 2 kts 127°
2026-04-26 07:39 60.31735 24.96038 166 ft 2 kts 125°
2026-04-26 07:39 60.31743 24.96016 166 ft 2 kts 124°
2026-04-26 07:40 60.31750 24.95993 166 ft 2 kts 123°
2026-04-26 07:40 60.31757 24.95970 166 ft 2 kts 98°
2026-04-26 07:40 60.31757 24.95944 166 ft 2 kts 67°
2026-04-26 07:40 60.31755 24.95932 166 ft 0 kts 52°
2026-04-26 07:42 60.31775 24.95984 166 ft 9 kts 54°
2026-04-26 07:43 60.31817 24.96096 166 ft 10 kts 46°
2026-04-26 07:43 60.31882 24.96120 166 ft 10 kts 354°
2026-04-26 07:43 60.31938 24.96187 166 ft 10 kts 46°
2026-04-26 07:43 60.31983 24.96284 166 ft 9 kts 47°
2026-04-26 07:44 60.32030 24.96386 166 ft 12 kts 47°
2026-04-26 07:44 60.32110 24.96470 167 ft 15 kts 353°
2026-04-26 07:44 60.32198 24.96554 167 ft 15 kts 50°
2026-04-26 07:44 60.32266 24.96700 166 ft 14 kts 46°
2026-04-26 07:45 60.32283 24.96861 164 ft 14 kts 132°
2026-04-26 07:45 60.32203 24.96954 164 ft 13 kts 152°
2026-04-26 07:45 60.32124 24.97037 165 ft 13 kts 152°
2026-04-26 07:45 60.32047 24.97118 164 ft 12 kts 152°
2026-04-26 07:46 60.31970 24.97194 163 ft 12 kts 153°
2026-04-26 07:46 60.31890 24.97277 161 ft 14 kts 153°
2026-04-26 07:46 60.31808 24.97362 160 ft 13 kts 153°
2026-04-26 07:46 60.31728 24.97445 158 ft 13 kts 154°
2026-04-26 07:47 60.31650 24.97521 158 ft 12 kts 154°
2026-04-26 07:47 60.31568 24.97602 155 ft 14 kts 154°
2026-04-26 07:47 60.31484 24.97692 155 ft 14 kts 149°
2026-04-26 07:47 60.31405 24.97787 155 ft 13 kts 149°
2026-04-26 07:48 60.31326 24.97870 156 ft 13 kts 153°
2026-04-26 07:48 60.31247 24.97944 157 ft 13 kts 156°
2026-04-26 07:48 60.31156 24.98032 158 ft 17 kts 152°
2026-04-26 07:48 60.31041 24.98149 157 ft 19 kts 155°
2026-04-26 07:49 60.30922 24.98254 157 ft 18 kts 156°
2026-04-26 07:49 60.30807 24.98356 158 ft 18 kts 156°
2026-04-26 07:49 60.30718 24.98431 157 ft 13 kts 157°
2026-04-26 07:50 60.30692 24.98722 156 ft 12 kts 50°
2026-04-26 07:50 60.30770 24.98764 157 ft 12 kts 343°
2026-04-26 07:50 60.30842 24.98692 155 ft 12 kts 333°
2026-04-26 07:50 60.30961 24.98569 154 ft 43 kts 333°
2026-04-26 07:51 60.31444 24.98075 155 ft 111 kts 333°
2026-04-26 07:51 60.32246 24.97269 528 ft 133 kts 335°
2026-04-26 07:51 60.33092 24.96452 1311 ft 135 kts 335°
2026-04-26 07:51 60.33837 24.95457 2296 ft 130 kts 325°
2026-04-26 07:52 60.34514 24.93927 2635 ft 164 kts 313°
2026-04-26 07:52 60.35111 24.91717 2791 ft 195 kts 300°
2026-04-26 07:52 60.35418 24.88860 3153 ft 222 kts 282°
2026-04-26 07:52 60.35185 24.85522 3490 ft 259 kts 258°
2026-04-26 07:53 60.34264 24.82233 4017 ft 275 kts 245°
2026-04-26 07:53 60.33250 24.78948 3987 ft 274 kts 248°
2026-04-26 07:53 60.32304 24.75644 3990 ft 271 kts 249°
2026-04-26 07:53 60.31391 24.72334 4102 ft 268 kts 250°
2026-04-26 07:54 60.30468 24.69012 4592 ft 278 kts 244°
2026-04-26 07:54 60.29009 24.66307 5400 ft 297 kts 212°
2026-04-26 07:54 60.27035 24.64977 6259 ft 303 kts 194°
2026-04-26 07:54 60.24948 24.64169 7011 ft 308 kts 192°
2026-04-26 07:55 60.22825 24.63412 7770 ft 311 kts 192°
2026-04-26 07:55 60.20690 24.62647 8573 ft 313 kts 192°
2026-04-26 07:55 60.18535 24.61857 9348 ft 317 kts 192°